[Iaude] MPEC J96: 2024 JH2 [a=1.68,e=0.52,i=5.9,H=24.5]
    mpec at cfa.harvard.edu 
    mpec at cfa.harvard.edu
       
    Mon May  6 06:51:05 EDT 2024
    
    
  
M.P.E.C. 2024-J96                                   Issued 2024 May 6, 10:47 UT
     The Minor Planet Electronic Circulars contain information on unusual
         minor planets, routine data on comets and natural satellites,
         and occasional editorial announcements.  They are published
    on behalf of Division F of the International Astronomical Union by the
          Minor Planet Center, Smithsonian Astrophysical Observatory,
                          Cambridge, MA 02138, U.S.A.
			  
             Prepared using the Tamkin Foundation Computer Network
                              MPC at CFA.HARVARD.EDU
            URL https://www.minorplanetcenter.net/    ISSN 1523-6714
                                    2024 JH2                                    
Observations:
     K24J02H 1C2024 05 03.29258 12 00 15.96 +57 23 00.7          17.6 GVEJ096703
     K24J02H 1C2024 05 03.29496 12 00 40.53 +57 20 57.2          17.3 GVEJ096703
     K24J02H 1C2024 05 03.29733 12 01 05.24 +57 18 52.2          17.4 GVEJ096703
     K24J02H 1C2024 05 03.29971 12 01 29.96 +57 16 46.3          17.2 GVEJ096703
     K24J02H 1C2024 05 05.37010 14 34 07.92 +28 32 37.1          17.8 GVEJ096703
     K24J02H 1C2024 05 05.37236 14 34 11.21 +28 31 20.1          18.0 GVEJ096703
     K24J02H 1C2024 05 05.37461 14 34 14.51 +28 30 03.1          18.4 GVEJ096703
     K24J02H 1C2024 05 05.42276 14 35 23.97 +28 03 04.3          18.4 GVEJ096703
     K24J02H 1C2024 05 05.42506 14 35 27.35 +28 01 47.2          18.6 GVEJ096703
     K24J02H*KC2024 05 05.90674 14 46 16.04 +24 05 34.4          17.9 GXEJ096L51
     K24J02H KC2024 05 05.90777 14 46 17.10 +24 05 07.0          18.0 GXEJ096L51
     K24J02H KC2024 05 05.90881 14 46 18.16 +24 04 39.9          18.1 GXEJ096L51
     K24J02H 1C2024 05 05.96748 14 47 23.87 +23 38 47.4          18.5 VXEJ096033
     K24J02H 1C2024 05 05.96849 14 47 24.89 +23 38 20.9          18.7 VXEJ096033
     K24J02H 1C2024 05 05.96895 14 47 25.34 +23 38 09.2          18.6 VXEJ096033
     K24J02H 1C2024 05 05.96936 14 47 25.75 +23 37 59.1          18.7 VXEJ096033
     K24J02H 1C2024 05 05.97226 14 47 21.34 +23 37 02.8          18.0 GVEJ096C40
     K24J02H 1C2024 05 05.97744 14 47 26.48 +23 34 47.7          17.8 GVEJ096C40
     K24J02H KC2024 05 05.97987 14 47 30.07 +23 33 51.0          18.1 GXEJ096L51
     K24J02H KC2024 05 05.98087 14 47 31.07 +23 33 25.2          18.3 GXEJ096L51
     K24J02H KC2024 05 05.98187 14 47 32.07 +23 32 59.5          18.3 GXEJ096L51
     K24J02H 1C2024 05 05.98262 14 47 31.71 +23 32 34.4          18.4 GVEJ096C40
     K24J02H 1C2024 05 06.01583 14 48 04.96 +23 18 24.6          18.4 GVEJ096C40
     K24J02H 1C2024 05 06.02100 14 48 10.14 +23 16 12.6          18.1 GVEJ096C40
     K24J02H 1C2024 05 06.02618 14 48 15.28 +23 14 01.8          18.3 GVEJ096C40
     K24J02H KC2024 05 06.04317714 48 36.27 +23 06 59.8          18.4 RoEJ096K88
     K24J02H KC2024 05 06.04573214 48 38.77 +23 05 55.9          18.6 RoEJ096K88
     K24J02H mC2024 05 06.13510214 50 35.207+22 30 31.18         18.42GVEJ096I52
     K24J02H mC2024 05 06.13527114 50 35.401+22 30 27.50         18.22GVEJ096I52
     K24J02H mC2024 05 06.13759014 50 37.558+22 29 33.43         18.44GVEJ096I52
     K24J02H mC2024 05 06.13776314 50 37.705+22 29 29.72         18.55GVEJ096I52
     K24J02H KB2024 05 06.15313 14 50 44.84 +22 24 28.9          17.8 GXEJ096W42
     K24J02H KB2024 05 06.15697 14 50 48.18 +22 22 59.4          17.8 GXEJ096W42
     K24J02H KB2024 05 06.16090 14 50 51.62 +22 21 27.7          17.8 GXEJ096W42
     K24J02H !C2024 05 06.30732 14 53 04.71 +21 25 15.8          18.4 GVEJ096673
     K24J02H !C2024 05 06.30858 14 53 05.73 +21 24 47.8                VEJ096673
     K24J02H !C2024 05 06.31047 14 53 07.23 +21 24 06.2                VEJ096673
     K24J02H 1C2024 05 06.36682914 53 49.531+21 03 38.84         18.29GVEJ096703
     K24J02H 1C2024 05 06.36921914 53 51.421+21 02 46.82               VEJ096703
     K24J02H 1C2024 05 06.37162014 53 53.329+21 01 54.05         18.43GVEJ096703
Observer details:
033 Karl Schwarzschild Observatory, Tautenburg.  Observers S. Melnikov, C.
    Hogner, F. Ludwig, M. Hartmann, B. Stecklum.  Measurer B. Stecklum.
    1.34-m f/3 Schmidt + CCD.
673 Table Mountain Observatory, Wrightwood.  Observer J. Pittichova.  1.0-m
    f/15 reflector + CCD.
703 Catalina Sky Survey.  Observers D. Rankin, T. Beuden.  Measurers B. Gray,
    D. Rankin, F. C. Shelly, T. Beuden, V. F. Carvajal, D. Fay, J. B. Fazekas,
    D. C. Fuls, A. R. Gibbs, A. D. Grauer, H. Groeller, J. K. Hogan, R. A.
    Kowalski, S. M. Larson, G. J. Leonard, R. L. Seaman, K. W. Wierzchos.
    0.68-m Schmidt + 10K CCD.
C40 Kuban State University Astrophysical Observatory.  Observers A. Ivanov, A.
    Barcov, V. Ivanov, V. Lysenko, N. Yakovenko, N. Ivanova, N. Gorbunov, G.
    Kurbatov, P. Shchukin, V. Roshchupko.  Measurer A. Ivanov.  0.51-m f/8
    reflector + CCD.
I52 Steward Observatory, Mt. Lemmon Station.  Observer R. A. Kowalski.
    Measurers T. Beuden, V. F. Carvajal, D. Fay, J. B. Fazekas, D. C. Fuls, A.
    R. Gibbs, A. D. Grauer, H. Groeller, J. K. Hogan, R. A. Kowalski, S. M.
    Larson, G. J. Leonard, D. Rankin, R. L. Seaman, F. C. Shelly, K. W.
    Wierzchos.  1.0-m prime focus + CCD.
K88 GINOP-KHK, Piszkesteto.  Observer K. Sarneczky.  0.60-m Schmidt + CCD.
L51 MARGO, Nauchnyi.  Observer G. Borisov.  0.50-m f/1.9 reflector + CCD.
W42 Mind's Eye Observatory, Vero Beach.  Observer J. T. Grage.  0.30-m f/3.3
    SCT + CMO.
Orbital elements:
2024 JH2                                                 Earth MOID = 0.0106 AU
Epoch 2024 Mar. 31.0 TT = JDT 2460400.5                 Veres                   
M   5.55542              (2000.0)            P               Q                  
n   0.45073905     Peri.  301.73071     -0.92275084     -0.38056740             
a   1.6846871      Node   216.00323     +0.37925874     -0.86862010             
e   0.5174238      Incl.    5.93896     +0.06851054     -0.31728154             
P   2.19           H   24.57          G   0.15           U   7                  
Residuals in seconds of arc
240503 703  0.6+  0.7-    240505 033  0.2+  0.2-    240506 I52  0.2+  0.1+
240503 703  0.9-  0.6+    240505 033  0.1+  0.2+    240506 I52  0.1+  0.0
240503 703  0.1-  0.3+    240505 C40  1.0+  0.9+    240506 I52  0.1-  0.3+
240503 703  0.4+  0.2-    240505 C40  0.0   0.5-    240506 W42  0.0   0.2+
240505 703  0.5-  0.5+    240505 L51  0.2-  0.1+    240506 W42  0.2-  0.4+
240505 703  0.5-  0.2+    240505 L51  0.1-  0.0     240506 W42  0.1+  0.5+
240505 703  0.2-  0.5-    240505 L51  0.1-  0.0     240506 673  0.1+  0.2-
240505 703  1.0-  0.0     240505 C40  0.4+  0.3-    240506 673  0.2+  0.4-
240505 703  0.0   0.4-    240506 C40  0.5+  0.2-    240506 673  0.0   0.3-
240505 L51  0.0   0.0     240506 C40  0.7+  0.7-    240506 703  0.5-  0.1-
240505 L51  0.0   0.3-    240506 C40  0.3+  0.1-    240506 703  0.2-  0.1-
240505 L51  0.1-  0.0     240506 K88  0.4-  0.0     240506 703  0.3+  0.6-
240505 033  0.2+  0.3+    240506 K88  0.3-  0.1+
240505 033  0.3+  0.3-    240506 I52  0.3-  0.2-
Ephemeris:
2024 JH2                 a,e,i = 1.68, 0.52, 6                   q = 0.8130
Date    TT    R. A. (2000) Decl.     Delta      r    Elong.  Phase     V
2024 04 06    03 44 59.4 +08 05 30   0.2141  0.8504    40.9   129.6    26.5
...
2024 04 21    04 05 27.9 +12 27 40   0.09229 0.9276    31.7   145.3    26.8
...
2024 04 29    04 44 51.7 +27 44 37   0.03280 0.9803    34.9   144.0    24.5
...
2024 05 05    14 23 09.0 +32 19 01   0.02219 1.0233   131.1    48.0    18.2
2024 05 06    14 47 58.8 +23 27 44   0.02832 1.0307   140.0    39.0    18.4
2024 05 07    15 01 54.4 +17 44 10   0.03505 1.0381   145.4    33.5    18.8
...
2024 05 13    15 29 23.2 +04 55 30   0.07939 1.0837   156.6    21.7    20.3
...
2024 05 21    15 37 57.4 +00 12 33   0.1425  1.1465   159.3    18.1    21.6
...
2024 06 05    15 44 08.4 -03 36 41   0.2724  1.2665   154.8    19.9    23.3
M. P. C. Staff               (C) Copyright 2024 MPC           M.P.E.C. 2024-J96
    
    
More information about the Iaude
mailing list